Погода в Нуэва-Лоха

Эквадор     0°05′02″N   76°53′10″W
темп.,
°C
ветер,
м/с
пор.,
м/с
влажн.,
%
обл.,
%
осадки,
мм/ч
давл.,
гПа
погр.,
м
4 декабря, сб
сб401:00+21зсз009954 1.9 101017
04:00+20зюз0010093 3.1 100917
07:00+21с00100100 7.9 101249
10:00+22зсз1399100 1.4 1014135
13:00+26з127666 1.9 1010487
16:00+28в127235 0.6 1007767
19:00+22ссв119791 2.9 101015
22:00+21сз119888 0.3 101215
5 декабря, вс
вс501:00+21ссз1199100 1.2 101128
04:00+21сз1199100 1.1 101026
07:00+21зюз0098100 1.2 101318
10:00+26св007492 0.1 1014457
13:00+29в116440 0.7 1010977
16:00+27вюв2376100 0.9 1007342
19:00+22ююв0196100 1.3 101011
22:00+22зюз119737 0.3 101216
6 декабря, пн
пн601:00+21зсз1199100 1.3 101122
04:00+21зсз1199100 2.6 101026
07:00+21ссз009878 2.6 101339
10:00+27ю0075100 1.1 1014506
13:00+28в2164100 1.6 1009725
16:00+28ююв1267100 0.0 1007721
19:00+23ю119546 0.8 101012
22:00+21юз0099100 3.3 101213
7 декабря, вт
вт701:00+21з12100100 10.2 101185
04:00+21зсз00100100 4.4 101027
07:00+21с0099100 5.9 101345
10:00+25ю119531 2.4 1013185
13:00+26ююз119393 7.1 1010356
16:00+25ю019539 4.8 1008139
19:00+22сз119888 6.1 101011
22:00+21сз119982 0.0 101126
8 декабря, ср
ср801:00+20ссз1199100 0.0 101013
04:00+20з119945 0.0 100914
07:00+20зюз019851 0.0 101262
10:00+29вюв115955 0.0 1012738
13:00+32всв2247100 0.0 10081777
16:00+31всв225370 0.0 10051750
19:00+24всв118446 0.0 100715
22:00+22зсз119012 0.0 101029